SCP
-0 -0 0 0 0 0 0 0 0 0 0 0 0 0 0 0 0 0 0 0 1 1 2 3 3 3 3 1 1 0 0 0 0 1 1 0 0 0 0 0 0 0 0
0 0 0 0 0 0 0 0 0 0 0 0 0 0 0 0 0 0 0 0 0 1 1 2 2 3 2 2 1 0 0 0 0 0 0 0 0 0 0 0 0 0 0
0 0 0 0 0 0 1 1 0 0 0 0 0 0 0 0 0 0 0 0 0 0 1 1 1 1 2 1 0 1 0 0 0 0 0 0 1 1 0 0 0 0 0
0 0 0 0 1 1 0 0 0 0 0 0 0 0 0 0 0 0 0 0 0 0 0 0 1 -0 1 0 -0 0 0 0 0 0 0 0 1 0 0 0 0 0 0
0 0 1 1 1 0 0 0 0 0 0 0 0 0 0 0 0 0 0 0 0 0 0 0 1 1 1 0 -0 0 0 0 0 0 0 1 1 0 0 0 0 0 0
1 1 1 1 0 0 0 0 0 0 0 0 0 0 0 0 0 0 0 0 0 0 0 0 0 0 0 0 0 0 0 1 0 0 0 0 0 1 0 0 0 0 0
1 0 0 0 0 0 0 0 0 0 0 0 0 0 0 0 0 0 0 0 0 0 0 0 0 0 0 0 0 0 0 0 0 0 0 0 1 0 0 0 0 0 0
0 0 0 0 0 0 0 0 0 0 0 0 0 0 0 0 0 0 0 0 0 0 0 0 0 0 0 0 1 1 1 1 1 0 0 0 0 0 0 0 0 0 0
0 0 0 0 0 0 0 0 0 0 0 0 0 0 0 0 0 0 0 0 0 0 0 0 0 0 0 0 0 0 1 1 1 1 0 1 1 0 0 0 0 0 0
0 0 0 0 0 0 0 0 0 0 0 0 0 0 0 0 0 0 0 0 0 0 0 0 0 0 0 0 0 0 1 1 1 1 1 1 1 1 1 1 0 0 0
0 0 0 0 0 0 0 0 0 0 0 0 0 0 0 0 0 0 0 0 0 0 0 0 0 0 0 0 0 0 0 0 0 0 1 1 1 1 1 1 1 2 2
0 0 0 0 0 0 0 0 0 0 0 0 0 0 0 0 0 0 0 0 0 0 0 0 0 0 0 0 0 0 0 0 0 0 0 0 0 0 0 1 1 1 2
0 0 0 0 0 0 0 0 0 0 0 0 0 0 0 0 0 0 0 0 0 0 0 0 0 0 0 0 0 0 0 0 0 0 0 0 0 0 0 0 0 0 0
0 0 0 0 0 0 0 0 0 0 0 0 0 0 0 0 0 0 0 0 0 0 0 0 0 0 0 0 0 0 0 0 0 0 0 0 0 0 0 0 0 0 0
0 0 0 0 0 0 0 0 0 0 0 0 0 0 0 0 0 0 0 0 0 0 0 0 0 0 -0 -0 0 0 0 0 0 0 0 0 0 0 0 0 0 0 0
0 0 0 0 0 0 0 0 0 0 0 0 0 0 0 0 0 0 0 0 0 0 0 0 0 0 0 0 0 0 0 0 0 0 0 0 0 0 0 0 0 0 0
0 0 0 0 0 0 0 0 0 0 0 0 0 0 0 0 0 0 0 0 0 0 0 0 0 0 0 0 0 0 0 0 0 0 0 0 0 0 0 0 0 0 0
0 0 0 0 0 0 0 0 0 0 0 0 0 0 0 0 0 0 0 0 0 0 0 0 0 0 0 0 0 0 0 0 0 0 0 0 0 0 0 0 0 0 0
0 0 0 0 0 0 0 0 0 0 0 0 0 0 0 0 0 0 0 0 0 0 0 0 0 0 0 0 0 0 0 0 0 0 0 0 0 0 0 0 0 0 0
0 0 0 0 0 0 0 0 0 0 0 0 0 0 0 0 0 0 0 0 0 0 0 0 0 0 0 0 0 0 0 0 0 0 0 0 0 0 0 0 0 0 0
0 0 0 0 0 0 0 0 0 0 0 0 0 0 0 0 0 0 0 0 0 0 0 0 0 0 0 0 0 0 0 0 0 0 0 0 0 0 0 0 0 0 0
0 0 0 0 0 0 0 0 0 0 0 0 0 0 0 0 0 0 0 0 0 0 0 0 0 0 0 0 0 0 0 0 0 0 0 0 0 0 0 0 0 0 0
0 0 0 0 0 0 0 0 0 0 0 0 0 0 0 0 0 0 0 0 0 0 0 0 0 0 0 0 0 0 0 0 0 0 0 0 0 0 0 0 0 0 0
0 0 0 0 0 0 0 0 0 0 0 0 0 0 0 0 0 0 0 0 0 0 0 0 0 0 0 0 0 0 0 0 0 0 0 0 0 0 0 0 0 0 0
0 0 0 0 0 0 0 0 0 0 0 0 0 0 0 0 0 0 0 0 0 0 0 0 0 0 0 0 0 0 0 0 0 0 0 0 0 0 0 0 0 0 0
0 0 0 0 0 0 0 0 0 0 0 0 0 0 0 0 0 0 0 0 0 0 0 0 0 0 0 0 0 0 0 0 0 0 0 0 0 0 0 0 0 0 0
Wind_Speed_500mb
14 7 2 7 14 16 17 16 18 21 24 30 33 34 41 37 36 37 45 45 52 52 55 55 54 54 58 55 56 55 48 44 41 40 37 40 39 40 40 38 35 37 35
17 15 13 13 12 7 12 14 20 25 32 37 40 40 32 38 36 42 43 42 47 49 55 58 57 60 55 58 61 54 48 44 44 47 45 37 41 40 42 40 36 36 38
22 15 15 17 14 13 11 17 23 32 34 36 39 42 40 36 40 43 46 49 49 50 49 52 57 62 66 59 47 38 41 41 49 37 46 42 41 40 40 39 37 35 37
15 19 15 17 23 14 18 22 32 38 43 46 47 48 49 50 51 50 52 51 50 48 52 53 50 58 47 21 39 48 45 43 34 38 38 40 42 45 42 39 36 35 34
15 16 17 18 23 25 26 33 36 38 39 39 40 40 40 42 43 41 40 38 35 35 38 44 39 38 38 44 42 43 50 46 39 39 40 36 34 43 47 43 39 38 33
22 20 20 17 21 23 24 25 27 29 32 35 40 42 43 40 39 39 31 33 37 39 38 37 38 43 42 41 39 44 49 38 41 44 46 50 56 58 52 48 44 42 39
25 24 22 24 28 26 16 16 21 29 38 46 51 52 48 35 42 23 47 39 41 40 38 33 30 30 33 36 39 40 43 44 42 45 52 55 49 44 46 52 51 49 46
31 25 26 24 14 7 11 19 26 33 40 45 46 42 32 43 31 50 44 33 42 45 45 40 33 36 33 32 31 34 45 43 49 49 42 42 43 44 47 53 57 55 56
29 16 13 8 1 5 14 24 30 37 42 38 36 33 18 19 65 42 46 54 45 54 46 42 35 32 40 38 37 32 30 35 38 47 47 38 41 48 50 49 54 59 61
25 21 14 7 4 12 17 24 33 41 43 40 37 33 27 36 25 40 50 40 67 65 67 61 44 33 46 44 37 34 27 26 34 37 43 49 47 50 55 55 57 61 64
24 18 12 7 6 11 20 29 38 43 42 37 37 40 44 46 46 46 56 78 79 76 69 63 49 38 42 33 27 31 31 27 29 35 35 38 47 52 54 57 57 59 62
23 17 10 2 11 20 28 35 41 43 46 44 42 42 49 46 42 48 65 78 78 73 69 53 33 33 48 41 31 30 31 33 30 29 32 37 41 45 50 54 56 57 58
21 13 3 10 19 26 31 35 37 43 45 47 46 50 45 41 44 53 67 71 71 67 54 46 49 34 41 50 54 52 49 43 35 31 30 31 30 26 33 39 51 58 52
11 6 5 14 20 24 28 32 40 44 45 49 52 51 47 46 51 47 50 62 67 50 47 57 53 57 64 56 54 55 52 45 40 40 37 30 29 34 31 38 42 48 62
12 2 8 15 22 29 34 40 43 45 49 51 51 48 45 43 43 45 45 43 51 49 51 37 71 74 67 67 58 53 49 41 30 33 40 42 34 26 24 24 32 50 58
12 12 15 21 28 34 38 42 46 50 51 47 42 42 44 44 42 38 38 40 42 47 40 59 54 55 66 63 51 41 36 34 25 31 27 34 40 32 21 18 32 32 60
19 18 22 26 32 39 43 47 48 45 44 42 40 44 41 35 32 30 30 36 44 48 50 58 64 61 60 58 51 42 34 28 28 26 33 30 30 33 30 30 37 45 42
20 21 26 31 36 44 45 41 39 39 40 42 40 35 30 29 28 32 39 41 39 43 49 57 55 59 56 55 56 46 37 32 33 37 32 35 31 26 34 35 32 31 31
20 25 31 37 43 38 36 36 36 39 36 38 32 24 25 26 35 37 36 39 41 39 45 54 61 58 61 58 56 56 52 42 37 41 41 37 34 26 22 39 42 40 39
26 33 39 38 31 29 33 40 36 28 34 28 23 24 25 28 33 30 35 36 41 50 56 64 68 67 63 61 55 55 59 51 50 42 38 40 40 34 28 18 36 47 46
33 37 32 28 30 32 31 31 30 37 30 26 23 23 22 27 23 26 33 41 48 59 67 67 68 67 65 63 59 54 53 55 55 49 49 46 42 41 37 33 17 27 43
33 34 34 32 26 22 24 27 34 36 33 26 28 31 30 22 27 33 32 40 50 62 66 66 68 66 65 58 53 53 55 55 57 48 55 64 52 43 40 39 32 21 21
33 31 25 19 17 23 24 27 30 41 36 28 29 31 31 22 24 33 42 48 48 51 57 59 61 63 61 53 51 53 55 60 59 60 57 64 48 43 33 32 35 37 32
17 14 14 12 18 21 20 26 35 43 38 31 28 33 31 17 22 38 48 51 57 63 69 72 68 61 54 48 45 50 54 58 56 51 36 52 43 41 26 20 28 35 44
19 17 19 17 11 14 25 33 37 44 39 34 27 35 27 21 24 40 48 56 64 70 73 65 54 50 46 40 38 42 46 44 46 41 26 34 28 30 21 8 12 35 22
14 12 3 11 16 22 29 36 44 45 42 34 30 30 22 21 28 37 44 54 67 75 73 58 56 49 41 40 37 32 32 36 35 29 14 12 23 28 13 2 9 2 24
Wind_Direction_500mb
180 197 262 285 286 297 314 325 321 324 315 304 307 306 308 302 308 313 305 301 304 297 297 299 293 298 295 294 302 267 275 270 272 272 265 265 269 269 268 261 255 255 252
194 215 219 257 265 315 326 319 294 290 285 283 286 279 311 290 295 302 302 300 302 305 305 302 301 299 293 299 296 303 274 283 268 277 273 268 265 268 265 261 255 251 251
211 227 239 253 253 252 273 280 278 279 285 288 298 300 301 299 300 301 299 303 304 304 301 295 294 298 294 288 309 320 300 292 273 269 271 268 266 264 263 261 252 249 247
232 236 245 239 231 237 277 274 278 287 295 299 303 306 305 302 298 298 297 300 305 307 309 304 296 299 290 313 287 309 308 295 288 282 272 274 268 260 258 257 253 248 245
203 205 225 230 239 257 264 278 287 298 303 307 308 305 303 306 308 302 302 306 308 313 318 327 315 303 306 300 288 306 304 290 287 285 270 268 269 264 254 251 249 246 241
201 220 246 261 275 276 287 293 303 309 316 319 317 316 314 313 303 305 305 315 321 320 325 324 335 341 320 297 284 295 299 291 282 274 273 270 280 275 258 246 242 245 238
218 225 240 262 282 293 304 319 324 329 328 328 326 321 323 319 308 310 313 319 313 313 320 335 344 341 340 330 305 293 288 285 284 282 275 265 269 264 257 248 241 240 239
222 240 255 268 269 318 326 327 331 339 342 339 341 341 337 338 314 337 333 334 330 326 321 313 326 346 343 336 322 309 298 296 290 288 276 272 263 262 259 254 249 241 235
229 221 182 169 168 338 346 351 345 345 345 346 349 1 343 329 331 320 329 334 335 339 335 331 323 318 335 338 336 317 303 302 293 276 275 269 268 269 267 264 256 243 238
180 164 145 126 61 15 357 350 353 352 351 347 344 346 341 335 335 323 313 328 332 335 334 335 329 317 328 335 326 325 310 290 296 283 277 267 271 273 263 259 259 248 238
157 141 130 97 38 7 359 355 350 348 349 343 343 338 335 331 328 321 320 322 326 333 334 340 334 332 330 343 347 328 329 325 301 294 280 276 277 279 274 258 252 244 227
145 128 111 61 13 3 356 351 347 343 341 338 337 331 328 328 325 322 317 318 323 327 332 342 359 342 323 318 322 334 333 320 308 310 308 292 282 281 279 270 249 246 209
132 144 97 13 1 349 347 343 336 331 331 327 323 321 322 316 312 314 313 318 321 329 334 333 339 325 321 320 318 314 313 319 318 310 300 303 293 275 280 285 263 237 243
148 138 352 346 340 334 330 322 323 320 317 313 316 321 316 310 311 317 317 320 325 327 326 329 327 325 326 322 319 316 310 307 309 302 306 296 294 299 297 277 279 239 215
163 219 308 318 316 315 315 316 313 312 310 311 313 314 313 313 314 312 312 316 324 331 333 324 324 323 323 323 322 319 317 310 293 297 295 295 291 281 310 285 274 244 223
200 257 291 296 301 305 309 308 309 309 308 312 316 315 313 313 313 312 313 318 322 326 320 322 329 327 322 323 325 321 323 323 294 288 293 298 285 278 267 297 259 244 236
238 263 276 292 303 304 307 310 310 309 310 313 316 314 317 319 318 329 330 323 322 322 321 323 325 325 326 326 322 324 318 319 308 294 284 289 295 277 274 257 240 245 235
251 275 292 300 302 308 310 315 315 313 314 318 318 316 320 325 336 328 322 321 327 326 320 321 330 337 343 344 339 329 315 301 290 290 292 280 282 297 258 242 241 236 249
272 289 295 305 310 315 318 317 313 313 319 327 328 333 337 336 330 330 332 329 326 336 341 334 334 338 338 342 338 339 336 324 303 294 291 287 275 276 285 255 238 237 235
292 300 308 310 316 322 323 314 318 324 332 332 332 335 338 340 336 331 327 331 341 338 335 334 332 333 333 337 335 332 331 335 327 317 299 289 279 277 266 269 242 236 232
303 311 312 317 324 324 323 322 336 336 336 332 335 335 343 338 336 337 336 333 333 332 330 330 327 326 327 329 329 324 322 322 324 324 307 306 296 278 269 255 266 224 225
308 309 309 315 319 320 331 342 336 335 340 333 330 331 336 339 341 333 327 327 332 325 326 325 323 318 320 320 318 314 311 315 314 324 315 306 304 285 274 263 253 227 210
307 310 309 309 317 324 336 338 332 334 342 334 331 334 332 335 336 326 331 332 331 328 328 323 317 314 312 314 309 305 307 304 301 307 312 301 310 297 285 268 250 237 227
320 326 329 334 332 338 323 318 333 335 342 335 335 333 328 319 325 327 330 333 333 331 329 324 318 314 309 307 305 300 296 294 296 309 313 296 313 308 305 278 247 237 233
351 3 8 354 335 308 320 327 331 331 332 337 338 338 325 301 322 335 336 336 335 334 331 329 325 319 315 306 305 298 296 296 290 309 322 301 326 330 345 290 232 236 255
17 354 8 349 331 323 325 326 332 334 335 339 335 339 327 311 335 343 340 342 341 339 334 331 331 333 325 317 312 299 301 289 283 305 331 301 308 326 333 213 40 84 246
Wind_Speed_850mb
14 7 2 7 14 16 17 16 18 21 24 30 33 34 41 37 36 37 45 45 52 52 55 55 54 54 58 55 56 55 48 44 41 40 37 40 39 40 40 38 35 37 35
17 15 13 13 12 7 12 14 20 25 32 37 40 40 32 38 36 42 43 42 47 49 55 58 57 60 55 58 61 54 48 44 44 47 45 37 41 40 42 40 36 36 38
22 15 15 17 14 13 11 17 23 32 34 36 39 42 40 36 40 43 46 49 49 50 49 52 57 62 66 59 47 38 41 41 49 37 46 42 41 40 40 39 37 35 37
15 19 15 17 23 14 18 22 32 38 43 46 47 48 49 50 51 50 52 51 50 48 52 53 50 58 47 21 39 48 45 43 34 38 38 40 42 45 42 39 36 35 34
15 16 17 18 23 25 26 33 36 38 39 39 40 40 40 42 43 41 40 38 35 35 38 44 39 38 38 44 42 43 50 46 39 39 40 36 34 43 47 43 39 38 33
22 20 20 17 21 23 24 25 27 29 32 35 40 42 43 40 39 39 31 33 37 39 38 37 38 43 42 41 39 44 49 38 41 44 46 50 56 58 52 48 44 42 39
25 24 22 24 28 26 16 16 21 29 38 46 51 52 48 35 42 23 47 39 41 40 38 33 30 30 33 36 39 40 43 44 42 45 52 55 49 44 46 52 51 49 46
31 25 26 24 14 7 11 19 26 33 40 45 46 42 32 43 31 50 44 33 42 45 45 40 33 36 33 32 31 34 45 43 49 49 42 42 43 44 47 53 57 55 56
29 16 13 8 1 5 14 24 30 37 42 38 36 33 18 19 65 42 46 54 45 54 46 42 35 32 40 38 37 32 30 35 38 47 47 38 41 48 50 49 54 59 61
25 21 14 7 4 12 17 24 33 41 43 40 37 33 27 36 25 40 50 40 67 65 67 61 44 33 46 44 37 34 27 26 34 37 43 49 47 50 55 55 57 61 64
24 18 12 7 6 11 20 29 38 43 42 37 37 40 44 46 46 46 56 78 79 76 69 63 49 38 42 33 27 31 31 27 29 35 35 38 47 52 54 57 57 59 62
23 17 10 2 11 20 28 35 41 43 46 44 42 42 49 46 42 48 65 78 78 73 69 53 33 33 48 41 31 30 31 33 30 29 32 37 41 45 50 54 56 57 58
21 13 3 10 19 26 31 35 37 43 45 47 46 50 45 41 44 53 67 71 71 67 54 46 49 34 41 50 54 52 49 43 35 31 30 31 30 26 33 39 51 58 52
11 6 5 14 20 24 28 32 40 44 45 49 52 51 47 46 51 47 50 62 67 50 47 57 53 57 64 56 54 55 52 45 40 40 37 30 29 34 31 38 42 48 62
12 2 8 15 22 29 34 40 43 45 49 51 51 48 45 43 43 45 45 43 51 49 51 37 71 74 67 67 58 53 49 41 30 33 40 42 34 26 24 24 32 50 58
12 12 15 21 28 34 38 42 46 50 51 47 42 42 44 44 42 38 38 40 42 47 40 59 54 55 66 63 51 41 36 34 25 31 27 34 40 32 21 18 32 32 60
19 18 22 26 32 39 43 47 48 45 44 42 40 44 41 35 32 30 30 36 44 48 50 58 64 61 60 58 51 42 34 28 28 26 33 30 30 33 30 30 37 45 42
20 21 26 31 36 44 45 41 39 39 40 42 40 35 30 29 28 32 39 41 39 43 49 57 55 59 56 55 56 46 37 32 33 37 32 35 31 26 34 35 32 31 31
20 25 31 37 43 38 36 36 36 39 36 38 32 24 25 26 35 37 36 39 41 39 45 54 61 58 61 58 56 56 52 42 37 41 41 37 34 26 22 39 42 40 39
26 33 39 38 31 29 33 40 36 28 34 28 23 24 25 28 33 30 35 36 41 50 56 64 68 67 63 61 55 55 59 51 50 42 38 40 40 34 28 18 36 47 46
33 37 32 28 30 32 31 31 30 37 30 26 23 23 22 27 23 26 33 41 48 59 67 67 68 67 65 63 59 54 53 55 55 49 49 46 42 41 37 33 17 27 43
33 34 34 32 26 22 24 27 34 36 33 26 28 31 30 22 27 33 32 40 50 62 66 66 68 66 65 58 53 53 55 55 57 48 55 64 52 43 40 39 32 21 21
33 31 25 19 17 23 24 27 30 41 36 28 29 31 31 22 24 33 42 48 48 51 57 59 61 63 61 53 51 53 55 60 59 60 57 64 48 43 33 32 35 37 32
17 14 14 12 18 21 20 26 35 43 38 31 28 33 31 17 22 38 48 51 57 63 69 72 68 61 54 48 45 50 54 58 56 51 36 52 43 41 26 20 28 35 44
19 17 19 17 11 14 25 33 37 44 39 34 27 35 27 21 24 40 48 56 64 70 73 65 54 50 46 40 38 42 46 44 46 41 26 34 28 30 21 8 12 35 22
14 12 3 11 16 22 29 36 44 45 42 34 30 30 22 21 28 37 44 54 67 75 73 58 56 49 41 40 37 32 32 36 35 29 14 12 23 28 13 2 9 2 24
Wind_Direction_850mb
180 197 262 285 286 297 314 325 321 324 315 304 307 306 308 302 308 313 305 301 304 297 297 299 293 298 295 294 302 267 275 270 272 272 265 265 269 269 268 261 255 255 252
194 215 219 257 265 315 326 319 294 290 285 283 286 279 311 290 295 302 302 300 302 305 305 302 301 299 293 299 296 303 274 283 268 277 273 268 265 268 265 261 255 251 251
211 227 239 253 253 252 273 280 278 279 285 288 298 300 301 299 300 301 299 303 304 304 301 295 294 298 294 288 309 320 300 292 273 269 271 268 266 264 263 261 252 249 247
232 236 245 239 231 237 277 274 278 287 295 299 303 306 305 302 298 298 297 300 305 307 309 304 296 299 290 313 287 309 308 295 288 282 272 274 268 260 258 257 253 248 245
203 205 225 230 239 257 264 278 287 298 303 307 308 305 303 306 308 302 302 306 308 313 318 327 315 303 306 300 288 306 304 290 287 285 270 268 269 264 254 251 249 246 241
201 220 246 261 275 276 287 293 303 309 316 319 317 316 314 313 303 305 305 315 321 320 325 324 335 341 320 297 284 295 299 291 282 274 273 270 280 275 258 246 242 245 238
218 225 240 262 282 293 304 319 324 329 328 328 326 321 323 319 308 310 313 319 313 313 320 335 344 341 340 330 305 293 288 285 284 282 275 265 269 264 257 248 241 240 239
222 240 255 268 269 318 326 327 331 339 342 339 341 341 337 338 314 337 333 334 330 326 321 313 326 346 343 336 322 309 298 296 290 288 276 272 263 262 259 254 249 241 235
229 221 182 169 168 338 346 351 345 345 345 346 349 1 343 329 331 320 329 334 335 339 335 331 323 318 335 338 336 317 303 302 293 276 275 269 268 269 267 264 256 243 238
180 164 145 126 61 15 357 350 353 352 351 347 344 346 341 335 335 323 313 328 332 335 334 335 329 317 328 335 326 325 310 290 296 283 277 267 271 273 263 259 259 248 238
157 141 130 97 38 7 359 355 350 348 349 343 343 338 335 331 328 321 320 322 326 333 334 340 334 332 330 343 347 328 329 325 301 294 280 276 277 279 274 258 252 244 227
145 128 111 61 13 3 356 351 347 343 341 338 337 331 328 328 325 322 317 318 323 327 332 342 359 342 323 318 322 334 333 320 308 310 308 292 282 281 279 270 249 246 209
132 144 97 13 1 349 347 343 336 331 331 327 323 321 322 316 312 314 313 318 321 329 334 333 339 325 321 320 318 314 313 319 318 310 300 303 293 275 280 285 263 237 243
148 138 352 346 340 334 330 322 323 320 317 313 316 321 316 310 311 317 317 320 325 327 326 329 327 325 326 322 319 316 310 307 309 302 306 296 294 299 297 277 279 239 215
163 219 308 318 316 315 315 316 313 312 310 311 313 314 313 313 314 312 312 316 324 331 333 324 324 323 323 323 322 319 317 310 293 297 295 295 291 281 310 285 274 244 223
200 257 291 296 301 305 309 308 309 309 308 312 316 315 313 313 313 312 313 318 322 326 320 322 329 327 322 323 325 321 323 323 294 288 293 298 285 278 267 297 259 244 236
238 263 276 292 303 304 307 310 310 309 310 313 316 314 317 319 318 329 330 323 322 322 321 323 325 325 326 326 322 324 318 319 308 294 284 289 295 277 274 257 240 245 235
251 275 292 300 302 308 310 315 315 313 314 318 318 316 320 325 336 328 322 321 327 326 320 321 330 337 343 344 339 329 315 301 290 290 292 280 282 297 258 242 241 236 249
272 289 295 305 310 315 318 317 313 313 319 327 328 333 337 336 330 330 332 329 326 336 341 334 334 338 338 342 338 339 336 324 303 294 291 287 275 276 285 255 238 237 235
292 300 308 310 316 322 323 314 318 324 332 332 332 335 338 340 336 331 327 331 341 338 335 334 332 333 333 337 335 332 331 335 327 317 299 289 279 277 266 269 242 236 232
303 311 312 317 324 324 323 322 336 336 336 332 335 335 343 338 336 337 336 333 333 332 330 330 327 326 327 329 329 324 322 322 324 324 307 306 296 278 269 255 266 224 225
308 309 309 315 319 320 331 342 336 335 340 333 330 331 336 339 341 333 327 327 332 325 326 325 323 318 320 320 318 314 311 315 314 324 315 306 304 285 274 263 253 227 210
307 310 309 309 317 324 336 338 332 334 342 334 331 334 332 335 336 326 331 332 331 328 328 323 317 314 312 314 309 305 307 304 301 307 312 301 310 297 285 268 250 237 227
320 326 329 334 332 338 323 318 333 335 342 335 335 333 328 319 325 327 330 333 333 331 329 324 318 314 309 307 305 300 296 294 296 309 313 296 313 308 305 278 247 237 233
351 3 8 354 335 308 320 327 331 331 332 337 338 338 325 301 322 335 336 336 335 334 331 329 325 319 315 306 305 298 296 296 290 309 322 301 326 330 345 290 232 236 255
17 354 8 349 331 323 325 326 332 334 335 339 335 339 327 311 335 343 340 342 341 339 334 331 331 333 325 317 312 299 301 289 283 305 331 301 308 326 333 213 40 84 246